TimePST,TemperatureF,Dew PointF,Humidity,Sea Level PressureIn,VisibilityMPH,Wind Direction,Wind SpeedMPH,Gust SpeedMPH,PrecipitationIn,Events,Conditions,WindDirDegrees,DateUTC
12:53 AM,46.9,44.1,90,30.16,10.0,Calm,Calm,-,N/A,,Scattered Clouds,0,2012-11-06 08:53:00
1:53 AM,48.0,45.0,89,30.14,10.0,Calm,Calm,-,N/A,,Scattered Clouds,0,2012-11-06 09:53:00
2:53 AM,46.9,44.1,90,30.12,10.0,Calm,Calm,-,N/A,,Scattered Clouds,0,2012-11-06 10:53:00
3:53 AM,46.4,44.6,93,30.10,10.0,Calm,Calm,-,N/A,,Clear,0,2012-11-06 11:53:00
4:53 AM,44.1,43.0,96,30.08,10.0,Calm,Calm,-,N/A,,Partly Cloudy,0,2012-11-06 12:53:00
5:25 AM,44.6,42.8,93,30.08,2.0,SE,3.5,-,N/A,,Overcast,130,2012-11-06 13:25:00
5:53 AM,46.0,45.0,96,30.06,1.0,SE,3.5,-,N/A,,Overcast,130,2012-11-06 13:53:00
6:53 AM,46.0,45.0,96,30.06,1.0,Calm,Calm,-,N/A,,Overcast,0,2012-11-06 14:53:00
7:50 AM,46.4,44.6,93,30.05,2.0,SE,4.6,-,N/A,,Overcast,130,2012-11-06 15:50:00
7:53 AM,46.0,45.0,96,30.05,2.0,SE,3.5,-,N/A,,Overcast,140,2012-11-06 15:53:00
8:00 AM,46.4,44.6,93,30.05,3.0,SE,3.5,-,N/A,,Overcast,140,2012-11-06 16:00:00
8:53 AM,46.9,46.0,97,30.04,3.0,SSE,4.6,-,N/A,,Overcast,150,2012-11-06 16:53:00
9:53 AM,48.9,46.0,90,30.02,6.0,Variable,3.5,-,N/A,,Overcast,0,2012-11-06 17:53:00
9:59 AM,48.2,46.4,93,30.02,6.0,Variable,4.6,-,N/A,,Mostly Cloudy,0,2012-11-06 17:59:00
10:13 AM,50.0,46.4,87,30.01,7.0,SE,5.8,-,N/A,,Mostly Cloudy,130,2012-11-06 18:13:00
10:53 AM,54.0,48.0,80,30.01,10.0,Variable,5.8,-,N/A,,Mostly Cloudy,0,2012-11-06 18:53:00
11:53 AM,55.0,48.0,77,29.96,10.0,SE,10.4,-,N/A,,Mostly Cloudy,140,2012-11-06 19:53:00
12:53 PM,55.0,48.0,77,29.97,10.0,South,4.6,-,N/A,,Mostly Cloudy,180,2012-11-06 20:53:00
1:53 PM,57.0,50.0,77,29.97,10.0,South,10.4,-,N/A,,Overcast,170,2012-11-06 21:53:00
2:53 PM,57.0,48.9,74,29.97,10.0,SSW,9.2,19.6,N/A,,Overcast,210,2012-11-06 22:53:00
3:53 PM,55.9,50.0,80,29.98,10.0,SSE,20.7,26.5,N/A,,Mostly Cloudy,160,2012-11-06 23:53:00
4:53 PM,55.9,51.1,84,29.96,10.0,South,13.8,25.3,0.01,,Overcast,190,2012-11-07 00:53:00
5:53 PM,55.9,48.0,75,29.96,10.0,South,11.5,21.9,0.00,,Mostly Cloudy,190,2012-11-07 01:53:00
6:53 PM,55.0,48.0,77,29.97,10.0,SSW,10.4,19.6,N/A,,Scattered Clouds,200,2012-11-07 02:53:00
7:08 PM,55.4,48.2,77,29.97,10.0,SSW,15.0,24.2,N/A,,Mostly Cloudy,200,2012-11-07 03:08:00
7:17 PM,55.4,48.2,77,29.97,10.0,SSW,12.7,27.6,N/A,,Scattered Clouds,200,2012-11-07 03:17:00
7:53 PM,54.0,46.9,77,29.98,10.0,South,15.0,23.0,N/A,,Clear,190,2012-11-07 03:53:00
8:53 PM,53.1,46.0,77,29.99,10.0,South,15.0,23.0,N/A,,Clear,180,2012-11-07 04:53:00
9:53 PM,53.1,45.0,74,30.02,10.0,SSW,8.1,19.6,N/A,,Partly Cloudy,200,2012-11-07 05:53:00
10:53 PM,53.1,45.0,74,30.02,10.0,SSW,8.1,-,N/A,,Partly Cloudy,210,2012-11-07 06:53:00
11:53 PM,52.0,45.0,77,30.03,10.0,South,12.7,24.2,N/A,,Clear,180,2012-11-07 07:53:00